www.pogodaiklimat.ru

Погода и климат >> Архив погоды >> Филиппины >> Давао


ПОГОДА в Давао

  • Прогноз погоды в Давао
  • Монитор погоды в Давао

АРХИВ ПОГОДЫ в Давао

Время (UTC), дата Ветер
(напр.,м/с)
 
Видим.   Явления Облачность Т
(С)
Тd
(С)
f
(%)
Тe
(С)
Тes
(С)
Комфортность P
(гПа)
Po
(гПа)
Тmin
(С)
Tmax
(С)
R
(мм)
R24
(мм)
S
(см)
09 9.09 Ю 3 15 км мгла {туман} 9/3 480 м
[Cu med, cong Ac trans Ci fib]
+31.7 +23.7 63 +43 +43 опасность
перегрева
1008.1 1006.0
12 9.09 штиль 0 15 км мгла {туман} 9/3 480 м
[Cu med, cong Ac trans Ci fib]
+29.3 +25.8 81 +43 +43 опасность
перегрева
1011.0 1008.9 +32.8
15 9.09 С 1 15 км мгла {туман} 8/3 480 м
[Cu med, cong Ac trans Ci fib]
+27.5 +25.5 89 +40 +40 очень
душно
1011.3 1009.2
18 9.09 штиль 0 15 км мгла {туман} 6/1 480 м
[Cu med, cong Ac trans Ci fib]
+26.6 +25.1 91 +38 +38 очень
душно
1009.0 1006.9
00 10.09 СВ 2 15 км мгла {туман} 6/3 480 м
[Cu med, cong Cs]
+29.2 +25.1 79 +42 +47 опасность
перегрева
1011.2 1009.1 +26.0
03 10.09 ЮВ 1 15 км мгла {туман} 9/3 480 м
[Cu med, cong Ac trans Cs]
+32.8 +24.6 62 +46 +56 опасность
перегрева
1011.2 1009.1
06 10.09 Ю 3 15 км мгла {туман} 9/4 480 м
[Cu med, cong Ac trans Cs]
+33.0 +24.8 62 +46 +50 опасность
перегрева
1008.1 1006.0
09 10.09 Ю 1 15 км мгла {туман} 9/3 480 м
[Cu med, cong Cs]
+32.1 +24.4 64 +45 +45 опасность
перегрева
1008.1 1006.0
12 10.09 С 3 15 км мгла {туман} 9/3 480 м
[Cu med, cong Cs]
+29.7 +22.8 67 +40 +40 очень
душно
1010.5 1008.4 +33.3
15 10.09 штиль 0 15 км мгла {туман} 5/1 480 м
[Cu med, cong Ac trans Ci fib]
+27.4 +22.8 76 +36 +36 очень
душно
1010.6 1008.5
18 10.09 штиль 0 15 км мгла {туман} 6/1 480 м
[Cu med, cong Ac trans Ci fib]
+25.5 +22.9 86 +34 +34 очень
душно
1010.1 1008.0
21 10.09 СЗ 1 15 км мгла {туман} 8/1 480 м
[Cu med, cong Ac trans Ci fib]
+24.7 +22.5 88 +32 +32 очень
душно
1010.6 1008.5
00 11.09 В 2 15 км мгла {туман} 6/1 480 м
[Cu med, cong Ci sp]
+28.0 +23.4 76 +38 +44 очень
душно
1010.8 1008.7 +24.5
03 11.09 С 2 15 км мгла {туман} 6/3 480 м
[Cu med, cong Ac trans Ci fib]
+33.0 +24.5 61 +46 +57 опасность
перегрева
1009.3 1007.2
06 11.09 Ю 2 15 км мгла {туман} 6/3 480 м
[Cu med, cong Ci fib]
+34.8 +23.5 52 +46 +55 опасность
перегрева
1006.4 1004.3
09 11.09 З 3 15 км мгла {туман} 9/3 480 м
[Cu med, cong Ac As Cs]
+33.3 +19.1 43 +38 +39 очень
душно
1006.3 1004.2
12 11.09 З 5 15 км в посл. час снег {туман} 9/9 480 м
[]
+31.3 +18.4 46 +36 +36 очень
душно
1007.8 1005.7 +35.0
15 11.09 В 2 15 км мгла {туман} 6/3 480 м
[Cu med, cong Ac trans Cs]
+28.8 +21.2 64 +36 +36 очень
душно
1008.7 1006.6
18 11.09 штиль 0 15 км мгла {туман} 9/3 480 м
[Cu med, cong Ac As Cs]
+28.2 +21.6 67 +36 +36 очень
душно
1008.0 1005.9
21 11.09 штиль 0 11 км мгла {туман} 8/3 480 м
[Cu med, cong Ac trans Ci fib]
+27.2 +22.0 73 +35 +35 очень
душно
1007.9 1005.8
00 12.09 Ю 5 15 км мгла {туман} 9/1 480 м
[Cu med, cong Ac trans Cs]
+28.3 +23.0 73 +38 +40 очень
душно
1009.4 1007.3 +27.2
03 12.09 ЮЗ 4 15 км мгла {туман} 10/3 480 м
[Cu med, cong Ac As Cs]
+29.4 +23.7 71 +40 +45 очень
душно
1009.0 1006.9
06 12.09 ЮЗ 2 12 км слаб. дождь {туман} 10/3 480 м
[Cu med, cong Ac As Cs]
+26.5 +24.0 86 +37 +42 очень
душно
1007.7 1005.6 10
09 12.09 С 1 12 км мгла {дождь, туман} 9/4 480 м
[Cu Sc Ac As Cs]
+27.4 +23.9 81 +38 +38 очень
душно
1007.4 1005.3 0.0
12 12.09 штиль 0 12 км {дождь, туман} 9/3 480 м
[Cu med, cong Ac As Cs]
+26.6 +23.1 81 +36 +36 очень
душно
1008.6 1006.5 +29.7 0.0
15 12.09 Ю 2 15 км мгла 10/3 480 м
[Cu med, cong Ac As Cs]
+27.0 +25.2 90 +39 +39 очень
душно
1009.0
18 12.09 Ю 2 15 км мгла {туман} 9/4 480 м
[Cu med, cong Ac As Cs]
+26.6 +23.2 82 +36 +36 очень
душно
1007.7 1005.6
21 12.09 Ю 2 12 км мгла {туман} 9/4 480 м
[Cu med, cong Ac As Cs]
+27.0 +24.1 84 +37 +37 очень
душно
1008.1 1006.0
00 13.09 ЮЗ 2 12 км в посл. час дождь {туман} 10/3 480 м
[Cu med, cong Ac As Cs]
+27.4 +23.2 78 +37 +40 очень
душно
1010.0 1007.9 +26.2 10
03 13.09 Ю 3 15 км мгла {туман} 5/3 480 м
[Cu med, cong Ac As Ci fib]
+30.0 +24.9 74 +43 +54 опасность
перегрева
1009.1 1007.0
06 13.09 Ю 2 15 км мгла {туман} 8/3 480 м
[Cu Sc Ac As Ci sp]
+29.8 +23.5 69 +40 +47 очень
душно
1007.0 1004.9
09 13.09 ЮЗ 3 15 км мгла {туман} 8/4 480 м
[Cu med, cong Ac trans Ci fib]
+29.5 +23.6 71 +40 +41 очень
душно
1007.3 1005.2
12 13.09 ЮЗ 3 15 км мгла {туман} 9/1 480 м
[Cu med, cong Ac trans Cs]
+28.7 +23.8 75 +40 +40 очень
душно
1010.0 1007.9 +30.6
15 13.09 ЮЗ 3 15 км мгла {туман} 9/4 480 м
[Cu med, cong Ac trans Cs]
+28.2 +23.7 77 +39 +39 очень
душно
1010.9 1008.8
18 13.09 ЮЗ 3 15 км мгла {туман} 10/4 480 м
[Cu med, cong Ac As Cs]
+28.0 +23.2 75 +38 +38 очень
душно
1009.6 1007.5
21 13.09 ЮЗ 3 12 км мгла {туман} 9/3 480 м
[Cu med, cong Ac trans Cs]
+27.0 +23.5 81 +37 +37 очень
душно
1010.1 1008.0
00 14.09 Ю 5 12 км мгла {туман} 6/4 480 м
[Cu med, cong Ac trans Ci fib]
+28.8 +24.3 77 +40 +42 очень
душно
1011.8 1009.7 +27.0
03 14.09 Ю 3 15 км мгла {туман} 6/4 480 м
[Cu med, cong Ci fib]
+31.0 +24.5 68 +43 +53 опасность
перегрева
1010.9 1008.8
06 14.09 Ю 5 15 км мгла {туман} 5/3 480 м
[Cu med, cong Ac trans Ci fib]
+32.0 +24.9 66 +45 +50 опасность
перегрева
1008.5 1006.4
09 14.09 Ю 2 12 км мгла {туман} 8/4 480 м
[Cu Sc Ac As Ci sp]
+29.6 +24.3 73 +41 +42 опасность
перегрева
1009.4 1007.3
12 14.09 Ю 1 12 км {туман} 8/3 480 м
[Cu med, cong Ac As Ci sp]
+28.1 +24.2 79 +39 +39 очень
душно
1010.9 1008.8 +32.0
15 14.09 ЮЗ 1 15 км 10/1 480 м
[Cu med, cong Ac trans Cs]
+27.7 +24.8 84 +39 +39 очень
душно
1011.9 1009.8
18 14.09 Ю 1 15 км 9/1 480 м
[Cu med, cong Ac As Cs]
+27.1 +24.0 83 +37 +37 очень
душно
1010.7 1008.6
21 14.09 Ю 1 15 км 5/1 480 м
[Cu med, cong Ci fib]
+25.5 +23.8 90 +35 +35 очень
душно
1010.9 1008.8
00 15.09 ЮЗ 3 12 км мгла {туман} 5/3 480 м
[Cu med, cong Ac trans Ci fib]
+28.1 +23.4 76 +38 +42 очень
душно
1012.2 1010.1 +25.5
03 15.09 Ю 4 15 км мгла {туман} 6/3 480 м
[Cu med, cong Ci fib]
+30.7 +23.3 65 +41 +51 опасность
перегрева
1011.3 1009.2
06 15.09 Ю 3 15 км мгла {туман} 1/1 480 м
[Cu med, cong Ci fib]
+33.0 +23.8 59 +45 +56 опасность
перегрева
1008.2 1006.1
09 15.09 Ю 4 15 км мгла {туман} 6/1 480 м
[Cu Sc Ci fib]
+29.9 +24.2 72 +42 +42 опасность
перегрева
1008.3 1006.2
12 15.09 Ю 2 15 км мгла {туман} 5/1 480 м
[Cu Sc Ci fib]
+27.8 +24.2 81 +39 +39 очень
душно
1010.7 1008.6 +33.0
15 15.09 Ю 1 15 км мгла {туман} 4/1 480 м
[Cu med, cong Ci fib]
+27.0 +24.5 86 +38 +38 очень
душно
1011.4 1009.3
18 15.09 штиль 0 15 км мгла {туман} 8/1 480 м
[Cu med, cong Ac trans Cs]
+25.8 +23.5 87 +35 +35 очень
душно
1010.2 1008.1
21 15.09 штиль 0 15 км мгла {туман} 4/1 480 м
[Cu med, cong Ci fib]
+24.0 +22.2 90 +31 +31 очень
душно
1010.3 1008.2
00 16.09 ЮЗ 3 12 км мгла {туман} 5/3 480 м
[Cu med, cong Ci fib]
+27.5 +23.0 76 +37 +41 очень
душно
1011.5 1009.4 +23.7
03 16.09 Ю 2 12 км мгла {туман} 6/3 480 м
[Cu med, cong Ci fib]
+30.5 +23.5 66 +41 +55 опасность
перегрева
1010.9 1008.8

 

Местоположение метеостанции Давао (Филиппины): широта 7.12 долгота 125.65 высота над уровнем моря 18 м.

В архиве по умолчанию представлена погода в Давао за последнюю неделю. Архивные данные за месяц целиком и за предыдущие месяцы, начиная с января 2011 года, Вы можете получить, выбрав интересующий диапазон дат из раскрывающегося списка и нажав кнопку "Ввод!".


*Определитесь, кто Вы:
робот инопланетянин человек

Внимание! Время в таблицах - всемирное. Для получения местного времени необходимо прибавить поправку, которая равна 8 ч.

Смотрите также архив погоды в соседних городах и на ближайших метеорологических станциях:

Погода в Генерал-Сантосе (Филиппины) (123 км)
Погода в Малайбалае (Филиппины) (131 км)
Погода в Котобато (Филиппины) (158 км)
Погода в Хинатуане (Филиппины) (158 км)
Погода в Бутуане (Филиппины) (202 км)
Погода в Кагаян-де-Оро (Филиппины) (210 км)
Погода в Серигао Сити (Филиппины) (299 км)
Погода в Дипологе (Филиппины) (302 км)
Погода в Тагбиларане (Филиппины) (340 км)
Погода в Маасине (Филиппины) (347 км)

Пояснения к столбцам:

Ветер - указаны скорость ветра в м/с - средняя за 10 мин, порывы в срок и между сроками (в фигурных скобках) и направление, откуда дует ветер: С - северный, СВ - северо-восточный, В - восточный, ЮВ - юго-восточный, Ю - южный, ЮЗ - юго-западный, З - западный, СЗ - северо-западный.
Видимость - горизонтальная дальность видимости в метрах или километрах. При видимости от 1 до 10 км при отсутствии осадков обычно наблюдается дымка, при ухудшении видимости до 1 км и менее - туман. В сухую погоду видимость может ухудшаться дымом, пылью или мглою.
Явления - указаны атмосферные явления, наблюдавшиеся в срок или в последний час перед сроком; фигурными скобками обозначены явления, наблюдавшиеся между сроками (за 1-3 часа до срока); квадратными скобками обозначены град или гололедные отложения с указанием их диаметра в мм.
Облачность - указаны через наклонную черту общая и нижняя облачность в баллах и высота нижней границы облаков в метрах; квадратными скобками обозначены формы облаков: Ci - перистые, Cs - перисто-слоистые, Cc - перисто-кучевые, Ac - высококучевые, As - высокослоистые, Sc - слоисто-кучевые, Ns - слоисто-дождевые, Cu - кучевые, Cb - кучево-дождевые. Подробнее классификацию облаков см. в Атласе облаков (PDF).
T - Температура воздуха - температура, измеренная на высоте 2 м над землей.
Td - Температура точки росы - температура, при понижении до которой содержащийся в воздухе водяной пар достигнет насыщения.
f - Относительная влажность воздуха - влажноcть воздуха, измеренная на высоте 2 м над землей.
Te - Эффективная температура - температура, которую ощущает одетый по сезону человек в тени. Характеристика душности погоды. При расчете учитывается влияние влажности воздуха и скорости ветра на теплоощущения человека.
Tes - Эффективная температура на солнце - температура, которую ощущает человек, с поправкой на солнечный нагрев. Характеристика знойности погоды. Зависит от высоты солнца над горизонтом, облачности и скорости ветра. Ночью, в пасмурную погоду, а также при ветре 12 м/с и более поправка равна нулю.
P - Атмосферное давление - приведенное к уровню моря атмосферное давление.
Po - Атмосферное давление - измеренное на уровне метеостанции атмосферное давление.
Tmin - Минимальная температура - минимум температуры воздуха на высоте 2 м над землей.
Tmax - Максимальная температура - максимум температуры воздуха на высоте 2 м над землей.
R - Количество осадков - Количество выпавших осадков за период времени, мм. При наведении курсора мыши на число - период времени, за который выпало указанное количество осадков.
R24 - Количество осадков - Количество выпавших осадков за 24 часа, мм.
S - Снежный покров - Высота снежного покрова, см. При наведении курсора мыши на число - состояние снежного покрова и степень покрытия местности в баллах.